Location: Cuiry
(49.3858°N, 3.7708°E)
Time: 22:17:30
(UTC+00:00)

Cosmos 2366 rocket - Pass Details

Date: 12 January 2026
Orbit: 955 x 995 km, 82.9° (Epoch: 7 February)

Event Time Altitude Azimuth Distance (km) Brightness Sun altitude
Rises 17:42:57 0° 350° (N) 3,709 7.0 -14.6°
Reaches altitude 10° 17:45:28 10° 351° (N) 2,761 6.3 -15.0°
Maximum altitude 17:51:50 86° 80° (E) 1,003 4.0 -16.0°
Drops below altitude 10° 17:58:12 10° 171° (S) 2,755 6.4 -17.0°
Sets 18:00:43 0° 172° (S) 3,700 7.1 -17.4°
